Location: Gälforsberget
(66.6500°N, 22.4167°E)
Time: 21:36:42
(UTC+00:00)

Meteor 2-15 Rocket - Pass Details

Date: 11 April 2026
Orbit: 940 x 955 km, 82.5° (Epoch: 16 May)

Event Time Altitude Azimuth Distance (km) Brightness Sun altitude
Exits shadow 20:13:49 - 190° (S) 3,353 6.9 -10.8°
Reaches altitude 10° 20:15:38 10° 189° (S) 2,660 6.4 -10.9°
Maximum altitude 20:21:43 79° 104° (ESE) 970 4.4 -11.2°
Drops below altitude 10° 20:27:51 10° 19° (NNE) 2,682 7.4 -11.5°
Sets 20:30:21 0° 19° (NNE) 3,632 8.1 -11.7°
